星链-11300 (STARLINK-11300)

导读

STARLINK-11300是美国太空探索技术公司(SpaceX)星链(Starlink)卫星互联网星座的成员,由美国于2024年9月25日发射升空。星链计划旨在通过近地轨道卫星群搭建全球卫星互联网,为地面提供高速网络服务,该卫星加入星座后进一步扩充了星链网络的覆盖范围与服务容量。

Basic Information
目录编号:
61243
目录名称:
STARLINK-11300
国际标识:
2024-175A
轨道中心:
EARTH
卫星名称:
星链-11300
卫星全名:
星链-11300 (STARLINK-11300)
卫星状态:
在轨 (已飞行671 天)
发射日期:
2024-09-25 UTC
国别 :
美国 (US)
星等 :
--
Orbit Information
数据来源 国际轨道数据 AOE轨道数据
星历时间 2026-07-27T09:06:05+0800
23小时前
查看轨道信息
2026-07-25T00:00:00+0800
3天前
查看轨道信息
半长轴 6737.88km 6737.792km
偏心率 0.0000477 0.0001157
轨道倾角 53.158° 53.160°
近地点辐角 103.638° 137.591°
升交点赤经 89.317° 101.047°
平近点角 256.469° 89.953°
近地点 359.421km 358.875km
远地点 360.065km 360.435km
周期 91.737分钟 91.735分钟
每日圈数 15.697046 15.697353
Detailed Information
固有亮度:
5
最大亮度:
2.5
卫星平台:
Starlink V1.0
覆盖范围:
全球
运营商:
太空探索技术公司
运营商所在国:
美国
制造商(研发单位):
太空探索技术公司
制造商所在国:
美国
使用方式:
暂无
Satellite Introduction
Starlink 计划是 SpaceX 推出的全球卫星互联网项目,通过发射低轨道卫星,为全球尤其是偏远地区提供高速、低延迟的互联网服务。自 2019 年起,Starlink 已部署数千颗卫星,旨在缩小全球数字鸿沟,推动互联网普及。该项目还为军事、航空等行业提供通信支持,带来广泛经济效益。
2D Orbit Map
3D Orbit Map
Orbit Altitude Analysis Chart
Orbit Inclination Analysis Chart
Orbit Comprehensive Analysis Chart
View Comprehensive Chart